McGrath, AK

5:29 PM AKDT on April 19, 2018 (GMT -0800)
McGrath

Weather History for PAMC - December, 2013

Change the Weather History Date:

Friday, December 27, 2013

  Actual Average Record
Temperature  
Mean Temperature -30 °F -5 °F  
Max Temperature -15 °F 3 °F 40 °F (1985)
Min Temperature -44 °F -14 °F -67 °F (1961)
Degree Days  
Heating Degree Days 95 71  
Month to date heating degree days 1757 1830  
Since 1 July heating degree days 5202 5953  
Cooling Degree Days 0 0  
Month to date cooling degree days 0 0  
Year to date cooling degree days 78 20  
Moisture  
Dew Point -27 °F    
Average Humidity 69    
Maximum Humidity 74    
Minimum Humidity 54    
Precipitation  
Precipitation T in 0.04 in 0.82 in (1990)
Month to date precipitation 1.27 1.12  
Year to date precipitation 20.71 17.83  
Snow  
Snow T in 0.70 in 9.40 in (1990)
Month to date snowfall 13.9 17.7  
Since 1 July snowfall 26.8 48.7  
Snow Depth 13.00 in    
Sea Level Pressure  
Sea Level Pressure 30.11 in    
Wind  
Wind Speed 0 mph (NW)    
Max Wind Speed 6 mph    
Max Gust Speed 6 mph    
Visibility 8 miles    
Events Fog , Snow    
T = Trace of Precipitation, MM = Missing Value Source: NWS Daily Summary

Daily Weather History Graph

Daily Weather History Graph

Search for Another Location

Airport or City:

Astronomy

Dec. 27, 2013 Rise Set
Actual Time 10:59 AM AKST 3:48 PM AKST
Civil Twilight 9:49 AM AKST 4:58 PM AKST
Nautical Twilight 8:44 AM AKST 6:03 PM AKST
Astronomical Twilight 7:47 AM AKST 7:00 PM AKST
Moon 4:26 AM AKST (12/27) 1:15 PM AKST (12/27)
Length of Visible Light 7h 09m
Length of Day
4h 48m
Waning Crescent, 27% of the Moon is Illuminated
Dec 27
Waning Crescent
Jan 1
New
Jan 7
First Quarter
Jan 15
Full
Jan 23
Last Quarter

Hourly Weather History & Observations

Time (AKST) Temp. Windchill Dew Point Humidity Pressure Visibility Wind Dir Wind Speed Gust Speed Precip Events Conditions
12:14 AM -40.0 °F - - N/A% 30.05 in 8.0 mi Calm Calm - N/A   Clear
12:53 AM -41.1 °F - - N/A% 30.11 in 4.0 mi Calm Calm - N/A Fog Patches of Fog
1:53 AM -42.0 °F - - N/A% 30.11 in 10.0 mi Calm Calm - N/A Fog Patches of Fog
2:53 AM -42.0 °F - - N/A% 30.11 in 9.0 mi Calm Calm - N/A Fog Patches of Fog
3:53 AM -42.0 °F - - N/A% 30.12 in 10.0 mi Calm Calm - N/A Fog Patches of Fog
4:53 AM -43.1 °F - - N/A% 30.12 in 10.0 mi Calm Calm - N/A Fog Patches of Fog
5:53 AM -42.0 °F - - N/A% 30.12 in 9.0 mi Calm Calm - N/A Fog Patches of Fog
6:53 AM -43.1 °F - - N/A% 30.13 in 10.0 mi Calm Calm - N/A Fog Patches of Fog
7:45 AM -43.1 °F - - N/A% 30.06 in 1.8 mi Calm Calm - N/A   Clear
7:53 AM -43.1 °F - - N/A% 30.12 in 1.8 mi Calm Calm - N/A   Clear
7:58 AM -43.1 °F - - N/A% 30.06 in 3.0 mi Calm Calm - N/A   Clear
8:53 AM -43.1 °F - - N/A% 30.13 in 10.0 mi Calm Calm - N/A   Clear
9:53 AM -43.1 °F - - N/A% 30.13 in 10.0 mi Calm Calm - N/A Fog Patches of Fog
10:53 AM -44.0 °F - - N/A% 30.14 in 7.0 mi Calm Calm - N/A Fog Patches of Fog
11:53 AM -43.1 °F - - N/A% 30.14 in 10.0 mi Calm Calm - N/A   Clear
12:53 PM -42.0 °F - - N/A% 30.14 in 6.0 mi Calm Calm - N/A   Clear
1:53 PM -38.9 °F - - N/A% 30.13 in 10.0 mi Calm Calm - N/A   Clear
2:53 PM -36.9 °F - - N/A% 30.12 in 10.0 mi Calm Calm - N/A   Clear
3:53 PM -38.0 °F - - N/A% 30.12 in 10.0 mi Calm Calm - N/A   Clear
4:53 PM -36.9 °F - - N/A% 30.12 in 10.0 mi Calm Calm - N/A   Overcast
5:53 PM -34.1 °F - - N/A% 30.12 in 10.0 mi Calm Calm - N/A   Scattered Clouds
6:53 PM -32.1 °F - - N/A% 30.10 in 10.0 mi Calm Calm - N/A   Overcast
7:53 PM -26.0 °F - -33.0 °F 69% 30.10 in 10.0 mi Calm Calm - N/A   Overcast
8:53 PM -23.1 °F - -29.9 °F 70% 30.10 in 10.0 mi Calm Calm - N/A   Overcast
9:53 PM -20.0 °F - -27.0 °F 70% 30.10 in 10.0 mi Calm Calm - N/A   Overcast
10:53 PM -18.0 °F - -25.1 °F 70% 30.09 in 4.0 mi Calm Calm - 0.00 in Snow Light Snow
11:14 PM -17.0 °F - -23.1 °F 74% 30.03 in 2.0 mi Calm Calm - 0.00 in Snow Light Snow
11:21 PM -16.1 °F - -23.1 °F 71% 30.03 in 2.5 mi Calm Calm - 0.00 in Snow Light Snow
11:53 PM -15.0 °F -25.0 °F -22.0 °F 71% 30.08 in 3.0 mi NW 3.5 mph - N/A Snow Light Snow